Regional Weather Roundup
Issued by NWS Wakefield, VA

Home | Current Version | Previous Version | Text Only | Print | Product List | Glossary On
Versions: 1 2 3 4 5 6 7 8 9 10 11 12 13 14 15 16 17 18 19 20 21 22 23 24 25 26 27 28 29 30 31 32 33 34 35 36 37 38 39 40 41 42 43 44 45 46 47 48 49 50
000
ASUS41 KAKQ 301815
RWRAKQ

REGIONAL WEATHER ROUNDUP
NATIONAL WEATHER SERVICE WAKEFIELD VA
200 PM EDT FRI SEP 30 2016

Note: "fair" indicates few or no clouds below 12,000 feet with no
significant weather and/or obstructions to visibility. * = Denotes
station may not report precipitation (e.g., rain,snow,etc.),
thunder or fog.

VAZ042-051-052>054-056-301900-
NORTHERN VIRGINIA

CITY           SKY/WX    TMP DP  RH WIND       PRES   REMARKS
WASH NATIONAL  CLOUDY    65  63  93 NE17      30.15S
DULLES         CLOUDY    63  59  87 NE10      30.15F
FORT BELVOIR   CLOUDY    65  62  91 VRB5      30.13F
QUANTICO       CLOUDY    67  63  87 NE14      30.13F
FREDERICKSBRG* CLOUDY    67  67 100 NE7       30.11S FOG
STAFFORD*      CLOUDY    65  65 100 NE8       30.16R FOG
WARRENTON      CLOUDY    64  59  84 NE7       30.13F HAZE
CULPEPER*      RAIN      64  64  99 N5        30.14F
MANASSAS*      CLOUDY    64  63  94 NE12      30.14F FOG
LEESBURG*      CLOUDY    63  63 100 NE7       30.17F
WINCHESTER     DRIZZLE   59  59 100 NE6       30.17F
FRONT ROYAL*   CLOUDY    59  59 100 N6        30.15F
LURAY*         CLOUDY    61  61 100 NE13      30.13F
$$

VAZ048-049-060>072-079>083-301900-
CENTRAL AND SOUTH CENTRAL VIRGINIA

CITY           SKY/WX    TMP DP  RH WIND       PRES   REMARKS
RICHMOND       CLOUDY    73  69  87 NE8       30.07F
CHESTERFIELD*  CLOUDY    73  57  56 E6        30.08F
PETERSBURG*    CLOUDY    75  63  67 NE7       30.06F
HANOVER        CLOUDY    71  68  90 CALM      30.09F FOG
TAPPAHANNOCK*  CLOUDY    72  72 100 N5        30.10S FOG
QUINTON*       CLOUDY    74  71  92 NE8       30.06F
CHARLOTTSVILLE CLOUDY    64  61  90 NE12      30.10F FOG
GORDONSVILLE*  NOT AVBL
ORANGE*          N/A     64  64 100 N7        30.13F FOG
LOUISA*        CLOUDY    70  68  94 NE12      30.08F FOG
BUMPASS*       CLOUDY    66  66 100 NE3       30.10F
FARMVILLE*     DRIZZLE   69  68  98 N7        30.04F
CREWE*         CLOUDY    70  70 100 E6        30.05F
FORT PICKETT*  CLOUDY   N/A N/A N/A NE8       30.05F
CHASE CITY*    CLOUDY    74  73  94 SE7       30.02F
CLARKSVILLE*   CLOUDY    75  73  94 E10       30.02F
SOUTH HILL*    CLOUDY    71  70  98 CALM      30.09F THUNDER
LAWRENCEVILLE* CLOUDY    73  72  97 SE10      30.06R VSB 1
EMPORIA*         N/A     77  72  83 NE6       30.04F
$$

VAZ088>098-301900-
SOUTHEAST VIRGINIA

CITY           SKY/WX    TMP DP  RH WIND       PRES   REMARKS
NORFOLK        MOSUNNY   81  71  71 SE10      30.05F
VIRGINIA BEACH PTSUNNY   79  70  74 SE9       30.05S
NORFOLK NAVAL  PTSUNNY   79  72  79 NE10      30.06F
WEST POINT*    CLOUDY    78  69  75 CALM      30.09S
SALUDA*        FAIR      77  74  89 SE5       30.08R
NEWPORT NEWS   PTSUNNY   79  71  76 NE6       30.06S
LANGLEY AFB    MOSUNNY   80  73  77 E10       30.05F
FORT EUSTIS    CLOUDY    83  72  68 E7        30.03F
WILLIAMSBURG*  PTSUNNY   81  73  78 CALM      30.06F
HR EXEC AP*    FAIR      84  72  65 E8        30.06F
FRANKLIN*      LGT RAIN  80  72  76 E5        30.04F
US460-WAKEFLD  CLOUDY    78  72  81 VRB3      30.04F
$$

VAZ020-022-025-037-045-301900-
WEST CENTRAL AND SOUTHWEST VIRGINIA

CITY           SKY/WX    TMP DP  RH WIND       PRES   REMARKS
STAUNTON*      CLOUDY    60  60  97 NE7       30.12F
WAYNESBORO*    CLOUDY    61  59  94 NE5       30.11F
HOT SPRINGS VA NOT AVBL
LYNCHBURG      CLOUDY    64  63  96 NE10      30.05F
DANVILLE       PTSUNNY   80  69  69 SE7G18    29.98F
SOUTH BOSTON*  CLOUDY    75  73  93 SE6       30.01F
MARTINSVILLE   PTSUNNY   76  70  81 CALM      30.01F
ROANOKE        HVY RAIN  68  65  90 NE12      30.05F FOG
BLACKSBURG     PTSUNNY   69  65  88 E10       30.07F
DUBLIN*        MOSUNNY   78  58  50 S13G23    30.03F
MARION*        PTSUNNY   74  55  50 SE7       30.05S
HILLSVILLE*    MOSUNNY   71  60  69 SE7G18    30.03F
RICHLANDS*     CLOUDY    56  56 100 W7        30.05F FOG
WISE*          CLOUDY    63  48  59 SE3       30.06F
ABINGDON*      CLOUDY    62  56  82 W7        30.05F
$$

MDZ021>025-VAZ099-100-301900-
SOUTHERN MARYLAND AND THE DELMARVA PENINSULA

CITY           SKY/WX    TMP DP  RH WIND       PRES   REMARKS
PATUXENT RIVER CLOUDY    70  66  87 NE15G21   30.09F
BAY BRIDGE APT CLOUDY    66  63  88 MISG      30.15S
LEONARDTOWN    CLOUDY    68  64  88 NE5       30.12F
DOVER          CLOUDY    67  67 100 NE10G26   30.14S
GEORGETOWN     LGT RAIN  68  67  96 NE20G25   30.12F FOG
EASTON         CLOUDY    68  64  88 E10G18    30.17S FOG
CAMBRIDGE      CLOUDY    68  64  88 NE8G16    30.11F
SALISBURY      CLOUDY    70  69  97 NE15      30.10F FOG
OCEAN CITY     CLOUDY    70  69  97 NE13      30.09F
WALLOPS ISLAND CLOUDY    72  72 100 NE17      30.08F FOG
ACCOMACK*      PTSUNNY  N/A N/A N/A E7        30.07S
$$

NCZ012>017-030>032-301900-
NORTH CENTRAL AND EASTERN NORTH CAROLINA

CITY           SKY/WX    TMP DP  RH WIND       PRES   REMARKS
ROANOKE RAPIDS CLOUDY    77  72  83 E5        30.03F
RALEIGH        PTSUNNY   79  71  76 SE14G21   30.00F
ELIZABETH CITY CLOUDY    81  73  76 E12       30.05F
AHOSKIE*       LGT RAIN  74  73  94 CALM      30.04S
EDENTON*       CLOUDY    82  78  89 E7        30.05S
CURRITUCK*     CLOUDY    79  74  85 E7        30.07F
KILL DEVIL HLS CLOUDY    86  78  77 SE8       30.05F HX  98
MANTEO         CLOUDY    82  73  74 S8        30.06F
CAPE HATTERAS  PTSUNNY   84  74  71 SE14      30.06S
TARBORO*       FAIR      75  72  90 E6        30.03F
GOLDSBORO      CLOUDY    77  75  93 SE5       30.00F
WASHINGTON     LGT RAIN  73  71  93 N12       30.01F
GREENVILLE     CLOUDY    81  79  94 S6        30.05S
NEW BERN       LGT RAIN  75  72  90 SE12      30.05S FOG
WILMINGTON     CLOUDY    76  73  91 E6        30.01F
$$

VAZ048-301900-
ELSEWHERE

CITY           SKY/WX    TMP DP  RH WIND       PRES   REMARKS
HARRISBURG PA  CLOUDY    57  55  93 VRB6      30.22F
BALTIMORE      DRIZZLE   62  60  93 NE14      30.16F FOG
ANNAPOLIS      LGT RAIN  65  63  93 NE7       30.14F FOG
ANDREWS AFB    CLOUDY    64  62  94 NE12      30.13F FOG
PHILADELPHIA   DRIZZLE   62  60  93 NE14      30.20F FOG
HENDERSON NC   MOSUNNY   74  69  84 E8        30.03F
GREENSBORO     MOSUNNY   80  65  59 S12       29.98F
ROCKY MOUNT    CLOUDY    80  75  84 S8        30.02S
$$

VAZ100-301900-
MARINE

STATION/POSITION TIME  TEMP    WIND        PRES    WAVE   SWELL
                       AIR SEA DIR/SP/G            HT/PER HT/PER
                 (UTC) (F)     (DEG/KT/KT) (MB)    (FT/S) (FT/S)
BRANDYWINE LGT   1742   67      60/ 29/ 32   N/A
CAPE MAY NJ      1742   67 69   60/ 18/ 26 1019.5F
LEWES DE         1742   68 71   60/ 27/ 32 1019.4F
OCEAN-CITY-INLET 1742   71 72   70/  7/ 12 1019.4F
WACHAPREAGUE VA  1748   74 75   80/  6/  8 1018.4F
THOMAS POINT MD  1800   66 72   50/ 15/ 16 1021.6F
GOOSES REEF MD   1800   69 73   90/ 19/ 23 1019.8    3/ 3
COVE POINT MD    1748   69      90/ 18/ 25 1019.8F
SOLOMONS ISLAND  1748   70 74   50/ 12/ 15   N/A
BISHOPS HEAD MD  1742   71 71   50/ 13/ 16 1019.2F
PINEY POINT MD   1748           80/ 10/ 13   N/A
POTOMAC MD       1800   71 73   60/ 14/ 17 1017.6    1/ 3
CAMBRIDGE MD     1742   68 71   50/ 16/ 19 1018.8F
LEWISETTA VA     1748   71 72   70/ 12/ 15 1018.2F
RAPPAHANNOCK LGT 1748           10/  5/  5 1018.7F
STINGRAY PT      1800   76 76  330/  2/  2 1018.7    1/ 3
YORK RVR RNG VA  1748   76      60/  3/  4 1017.9R
YORKTOWN VA      1748   75 76   70/  6/  7 1017.8S
JAMESTOWN VA     1800   78 77   80/  4/  6   N/A     0
DOMINION TERM VA 1748   78      20/  2/  7 1017.9F
KIPTOPEKE VA     1748      75  140/  8/ 10   N/A
CHES BAY BRIDGE  1748   76 76   60/ 10/ 11 1017.9F
CAPE HENRY VA    1748   76     100/  7/  8   N/A
WILLOUBY STN VA  1748   75      70/  9/ 10   N/A
CAPE HENRY BUOY  1742      77                N/A     4/11   2/11
1ST LANDING BUOY 1800   76 77  110/  6/  8 1017.8    3/ 6
CAPE CHARLES BUO 1726      78                N/A     5/11   2/11
OFFSHORE WE BUOY 1751      77                N/A     6/ 9   2/11
64NM E OF VA BCH 1750   76 76  120/  4/  4 1017.9F   7/10   7/10
DUCK PIER NC     1748   78 77  100/ 10/ 11 1017.3F
44056 DUCK FRF   1741      76                N/A     5/11   2/11
OREGON INLET NC  1748   80 78  120/  9/ 15 1017.9F
HATTERAS NC      1748   81 79  110/  9/ 12 1017.7S
DIAMOND SHLS NC  1750   81 78  160/  6/  8 1017.8F   5/11   5/11
CAPE LOOKOUT NC  1800   74     290/  3/  4 1016.9F
$$



USA.gov is the U.S. government's official web portal to all federal, state and local government web resources and services.